Weather in Timaru

New Zealand     44°23′54″S   171°14′54″E
temp.,
°C
wind,
m/s
gust,
m/s
humid.,
%
clouds,
%
prec.,
mm/h
press.,
hPa
HPBL,
m
14 may, fri
fri1400:00+5n57810 0.0 1023264
03:00+4n57830 0.0 1020259
06:00+4n58822 0.0 1017282
09:00+5n59770 0.0 1015340
12:00+10nne710543 0.0 1010681
15:00+13nne784899 0.0 1004879
18:00+9nne71073100 0.0 1000348
21:00+8n4471100 0.0 996138
15 may, sat
sat1500:00+9n3453100 0.0 992125
03:00+10n4551100 0.0 989126
06:00+10ssw55764 0.0 991113
09:00+11ssw91367100 0.0 997679
12:00+13ssw665944 0.1 1000914
15:00+11se5557100 0.0 1002688
18:00+10ene4564100 0.0 1006563
21:00+9ene4678100 0.3 1007530
16 may, sun
sun1600:00+9n357793 0.5 1007378
03:00+7nne45872 0.0 1005209
06:00+6nnw3384100 0.0 1003107
09:00+7n2272100 0.0 100198
12:00+9nne1164100 0.1 999286
15:00+9sw237994 1.1 997226
18:00+9s5679100 1.1 999351
21:00+7w238434 0.1 1001125
17 may, mon
mon1700:00+6nnw34881 0.1 1002109
03:00+7n4690100 0.0 1002211
06:00+5nnw447977 0.0 1001121
09:00+6nnw45698 0.0 1001122
12:00+12n811571 0.0 999611
15:00+16nw512476 0.0 995952
18:00+9w347496 0.1 997109
21:00+9sse22862 0.0 999127
18 may, tue
tue1800:00+7wnw22830 0.1 99864
03:00+6nnw45780 0.0 997118
06:00+5nnw610730 0.0 995222
09:00+13w112248100 0.0 9962060
12:00+15w81740100 0.0 9971829
15:00+16wnw51239100 0.0 9971326
18:00+12nnw71051100 0.0 998161
21:00+10nnw58635 0.0 997129